Bar Harbor, ME

4:51 PM EST on December 09, 2019 (GMT -0500)
Hancock County-Bar Harbor

Weather History for KBHB - October, 2019

Change the Weather History Date:

Friday, October 18, 2019

  Actual Average Record
Temperature  
Mean Temperature 48 °F -  
Max Temperature 53 °F 55 °F 70 °F (1961)
Min Temperature 44 °F 39 °F 27 °F (1978)
Degree Days  
Heating Degree Days 16    
Moisture  
Dew Point 41 °F    
Average Humidity 77    
Maximum Humidity 100    
Minimum Humidity 57    
Precipitation  
Precipitation 0.00 in - - ()
Sea Level Pressure  
Sea Level Pressure 29.49 in    
Wind  
Wind Speed 8 mph (WNW)    
Max Wind Speed 15 mph    
Max Gust Speed 22 mph    
Visibility 10 miles    
Events Rain    
Averages and records for this station are not official NWS values.
T = Trace of Precipitation, MM = Missing Value Source: NWS Daily Summary

Daily Weather History Graph

Daily Weather History Graph

Search for Another Location

Airport or City:

Astronomy

Oct. 18, 2019 Rise Set
Actual Time 6:52 AM EDT 5:44 PM EDT
Civil Twilight 6:22 AM EDT 6:13 PM EDT
Nautical Twilight 5:48 AM EDT 6:47 PM EDT
Astronomical Twilight 5:15 AM EDT 7:21 PM EDT
Moon 8:49 PM EDT (10/18) 11:30 AM EDT (10/18)
Length of Visible Light 11h 51m
Length of Day
10h 52m
Waning Gibbous, 79% of the Moon is Illuminated
Oct 18
Waning Gibbous
Oct 21
Last Quarter
Oct 27
New
Nov 4
First Quarter
Nov 12
Full

Hourly Weather History & Observations

Time (EDT) Temp. Windchill Dew Point Humidity Pressure Visibility Wind Dir Wind Speed Gust Speed Precip Events Conditions
12:56 AM 46.0 °F 43.1 °F 45.0 °F 96% 29.20 in 10.0 mi West 5.8 mph - N/A   Clear
1:47 AM 46.4 °F 42.4 °F 44.6 °F 93% 29.24 in 10.0 mi West 8.1 mph - N/A   Scattered Clouds
1:56 AM 46.9 °F - 46.0 °F 97% 29.26 in 10.0 mi West 9.2 mph - N/A   Mostly Cloudy
2:29 AM 46.4 °F 43.5 °F 44.6 °F 93% 29.25 in 10.0 mi West 5.8 mph - N/A   Mostly Cloudy
2:56 AM 46.0 °F 42.5 °F 45.0 °F 96% 29.27 in 10.0 mi West 6.9 mph - N/A   Scattered Clouds
3:29 AM 46.4 °F 42.4 °F 46.4 °F 100% 29.29 in 10.0 mi West 8.1 mph - N/A   Overcast
3:43 AM 48.2 °F - 46.4 °F 93% 29.30 in 10.0 mi West 9.2 mph - N/A   Overcast
3:56 AM 48.0 °F - 45.0 °F 89% 29.32 in 10.0 mi West 5.8 mph - N/A   Overcast
4:30 AM 46.4 °F 41.5 °F 42.8 °F 87% 29.33 in 10.0 mi WNW 10.4 mph - N/A   Overcast
4:56 AM 46.0 °F 41.9 °F 42.1 °F 86% 29.37 in 10.0 mi West 8.1 mph - N/A   Scattered Clouds
5:56 AM 45.0 °F 39.7 °F 37.9 °F 76% 29.40 in 10.0 mi WNW 10.4 mph 17.3 mph N/A   Clear
6:56 AM 44.1 °F 41.5 °F 37.9 °F 79% 29.44 in 10.0 mi WNW 4.6 mph - N/A   Overcast
7:56 AM 45.0 °F 42.6 °F 39.0 °F 80% 29.46 in 10.0 mi West 4.6 mph - N/A   Overcast
8:56 AM 46.9 °F - 37.9 °F 71% 29.49 in 10.0 mi WNW 12.7 mph 19.6 mph N/A   Partly Cloudy
9:56 AM 48.0 °F - 36.0 °F 63% 29.51 in 10.0 mi WNW 15.0 mph 20.7 mph N/A   Overcast
10:56 AM 48.9 °F - 36.0 °F 61% 29.54 in 10.0 mi NW 11.5 mph 19.6 mph N/A   Overcast
11:56 AM 53.1 °F - 37.9 °F 57% 29.55 in 10.0 mi WNW 11.5 mph 18.4 mph N/A   Overcast
12:56 PM 52.0 °F - 37.0 °F 57% 29.55 in 10.0 mi WNW 15.0 mph 21.9 mph N/A   Overcast
1:56 PM 53.1 °F - 37.9 °F 57% 29.56 in 10.0 mi NNW 10.4 mph 20.7 mph 0.00 in   Overcast
2:56 PM 50.0 °F - 41.0 °F 71% 29.58 in 10.0 mi NW 8.1 mph - 0.00 in Rain Light Rain
3:56 PM 53.1 °F - 39.9 °F 61% 29.60 in 10.0 mi NW 10.4 mph 19.6 mph N/A   Overcast
4:56 PM 52.0 °F - 41.0 °F 66% 29.63 in 10.0 mi WNW 8.1 mph - 0.00 in   Mostly Cloudy
5:56 PM 51.1 °F - 41.0 °F 68% 29.65 in 10.0 mi NW 8.1 mph 17.3 mph N/A   Overcast
6:56 PM 48.9 °F - 42.1 °F 77% 29.69 in 10.0 mi West 4.6 mph - N/A   Mostly Cloudy
7:56 PM 48.9 °F - 41.0 °F 74% 29.71 in 10.0 mi Variable 5.8 mph - N/A   Overcast
8:56 PM 48.9 °F - 39.9 °F 71% 29.73 in 10.0 mi WNW 8.1 mph - N/A   Overcast
9:56 PM 48.0 °F - 39.9 °F 74% 29.75 in 10.0 mi West 5.8 mph - N/A   Mostly Cloudy
10:56 PM 48.0 °F - 39.0 °F 71% 29.77 in 10.0 mi West 6.9 mph - N/A   Mostly Cloudy
11:56 PM 46.0 °F 42.5 °F 39.0 °F 76% 29.78 in 10.0 mi WNW 6.9 mph - N/A   Clear